TimeMDT,TemperatureF,Dew PointF,Humidity,Sea Level PressureIn,VisibilityMPH,Wind Direction,Wind SpeedMPH,Gust SpeedMPH,PrecipitationIn,Events,Conditions,WindDirDegrees,DateUTC
12:53 AM,39.0,30.0,70,29.84,10.0,SW,17.3,-,N/A,,Overcast,220,2013-04-20 06:53:00
1:53 AM,39.0,30.9,73,29.83,10.0,SSW,13.8,-,N/A,,Mostly Cloudy,210,2013-04-20 07:53:00
2:53 AM,37.9,30.0,73,29.81,10.0,SW,15.0,-,N/A,,Scattered Clouds,220,2013-04-20 08:53:00
3:53 AM,39.0,30.9,73,29.81,10.0,SW,11.5,-,N/A,,Overcast,230,2013-04-20 09:53:00
4:53 AM,37.9,30.9,76,29.82,10.0,WSW,9.2,-,N/A,,Overcast,240,2013-04-20 10:53:00
5:53 AM,37.0,30.0,76,29.84,10.0,SSW,6.9,-,N/A,,Mostly Cloudy,210,2013-04-20 11:53:00
6:53 AM,37.0,30.0,76,29.86,10.0,SW,8.1,-,N/A,,Mostly Cloudy,230,2013-04-20 12:53:00
7:53 AM,41.0,32.0,70,29.88,10.0,SW,8.1,-,N/A,,Clear,230,2013-04-20 13:53:00
8:53 AM,44.1,32.0,63,29.89,10.0,SW,12.7,-,N/A,,Clear,220,2013-04-20 14:53:00
9:53 AM,44.1,32.0,63,29.89,10.0,SW,8.1,-,N/A,,Mostly Cloudy,230,2013-04-20 15:53:00
10:53 AM,46.0,28.9,51,29.88,10.0,SSW,6.9,-,N/A,,Overcast,210,2013-04-20 16:53:00
11:53 AM,46.9,28.0,48,29.88,10.0,Calm,Calm,-,N/A,,Mostly Cloudy,0,2013-04-20 17:53:00
12:53 PM,50.0,28.0,43,29.86,10.0,SW,6.9,-,N/A,,Overcast,230,2013-04-20 18:53:00
1:53 PM,51.1,28.0,41,29.84,10.0,West,6.9,-,N/A,,Partly Cloudy,270,2013-04-20 19:53:00
2:53 PM,53.1,28.0,38,29.82,10.0,West,9.2,-,N/A,,Scattered Clouds,260,2013-04-20 20:53:00
3:53 PM,55.0,28.0,35,29.79,10.0,SW,8.1,-,N/A,,Scattered Clouds,220,2013-04-20 21:53:00
4:53 PM,53.1,30.9,43,29.79,10.0,South,13.8,-,N/A,,Clear,190,2013-04-20 22:53:00
5:53 PM,51.1,30.9,46,29.81,10.0,SSW,11.5,-,N/A,,Scattered Clouds,210,2013-04-20 23:53:00
6:53 PM,46.0,36.0,68,29.86,10.0,SSW,3.5,-,0.02,,Overcast,210,2013-04-21 00:53:00
7:53 PM,42.1,35.1,76,29.87,10.0,SSW,4.6,-,N/A,,Clear,210,2013-04-21 01:53:00
8:53 PM,43.0,34.0,71,29.88,10.0,SSW,5.8,-,N/A,,Mostly Cloudy,210,2013-04-21 02:53:00
9:53 PM,41.0,34.0,76,29.90,10.0,SW,11.5,-,N/A,,Scattered Clouds,230,2013-04-21 03:53:00
10:53 PM,39.0,33.1,79,29.93,10.0,Calm,Calm,-,N/A,,Mostly Cloudy,0,2013-04-21 04:53:00
11:53 PM,37.9,33.1,83,29.94,10.0,NNW,3.5,-,N/A,,Overcast,330,2013-04-21 05:53:00